1998-067WH

Last updated on Wed Apr 17 2024 00:02:05 GMT+0000 (Coordinated Universal Time)

1 59508U 98067WH 24107.39888140 .00111296 00000+0 18260-2 0 9990 2 59508 51.6363 261.7462 0003277 101.0391 259.0967 15.51566414 854

Satellite not in orbit